Date,TemperatureHighF,TemperatureAvgF,TemperatureLowF,DewpointHighF,DewpointAvgF,DewpointLowF,HumidityHigh,HumidityAvg,HumidityLow,PressureMaxIn,PressureMinIn,WindSpeedMaxMPH,WindSpeedAvgMPH,GustSpeedMaxMPH,PrecipitationSumIn
2013-3-1,30.0,27.9,27.0,27.0,23.1,21.0,92,81,74,30.23,30.13,12,6,16,0.00
2013-3-2,36.0,28.3,25.0,23.0,20.4,19.0,86,73,51,30.29,30.16,12,5,0,0.00
2013-3-3,57.0,41.4,25.0,37.0,28.1,19.0,79,60,43,30.16,29.76,17,10,25,0.00
2013-3-4,64.0,53.1,43.0,46.0,39.7,32.0,71,60,48,29.85,29.62,21,10,28,0.00
2013-3-5,43.0,36.6,30.0,34.0,25.9,19.0,100,67,45,30.28,29.85,18,12,28,0.00
2013-3-6,45.0,33.1,21.0,27.0,22.5,16.0,85,65,48,30.37,30.22,15,4,16,0.00
2013-3-7,63.0,47.7,36.0,30.0,27.3,25.0,69,48,23,30.23,30.12,17,8,23,0.00
2013-3-8,63.0,52.8,43.0,41.0,35.1,30.0,71,52,38,30.21,30.03,20,12,30,0.00
2013-3-9,66.0,57.6,48.0,57.0,47.4,37.0,100,70,52,30.04,29.70,24,14,33,0.00
2013-3-10,54.0,43.4,30.0,54.0,42.6,27.0,100,97,87,29.93,29.65,20,10,29,0.00
2013-3-11,43.0,33.0,27.0,28.0,24.5,21.0,100,73,41,30.01,29.89,14,-6,23,0.00
2013-3-12,52.0,40.3,28.0,36.0,27.6,21.0,80,61,43,30.30,29.99,13,5,17,0.00
2013-3-13,50.0,37.5,25.0,27.0,22.9,19.0,86,57,34,30.44,30.30,9,-55,0,0.00
2013-3-14,70.0,52.8,37.0,45.0,33.5,21.0,62,48,35,30.33,30.10,23,10,30,0.00
2013-3-15,77.0,63.7,48.0,52.0,46.8,43.0,81,56,33,30.11,29.79,21,10,29,0.00
2013-3-16,66.0,57.5,45.0,52.0,45.5,37.0,76,65,51,29.89,29.77,18,12,27,0.00
2013-3-17,45.0,39.6,37.0,41.0,38.2,36.0,100,95,75,29.90,29.69,18,11,27,0.00
2013-3-18,54.0,44.4,37.0,43.0,36.7,27.0,100,78,34,30.04,29.69,13,6,22,0.00
2013-3-19,52.0,42.0,34.0,30.0,24.9,18.0,74,52,27,30.24,30.03,15,6,22,0.00
2013-3-20,45.0,36.4,30.0,32.0,22.6,16.0,92,61,30,30.34,30.10,16,-128,23,0.00
2013-3-21,39.0,33.9,30.0,30.0,20.1,12.0,92,60,32,30.10,29.81,15,11,24,0.00
2013-3-22,37.0,35.3,32.0,37.0,33.8,30.0,100,93,86,29.92,29.82,12,6,16,0.00
2013-3-23,39.0,37.2,36.0,39.0,36.8,34.0,100,99,93,29.92,29.72,13,8,17,0.00
2013-3-24,37.0,31.0,25.0,37.0,28.8,19.0,100,92,73,30.09,29.65,16,9,25,0.00
2013-3-25,34.0,27.0,21.0,25.0,20.1,16.0,85,75,59,30.29,30.07,15,8,22,0.00
2013-3-26,43.0,31.5,21.0,27.0,22.2,19.0,92,70,45,30.39,30.27,12,1,0,0.00
2013-3-27,57.0,43.4,30.0,28.0,24.6,19.0,74,49,28,30.28,30.14,16,7,24,0.00
2013-3-28,66.0,56.6,46.0,50.0,40.2,28.0,67,54,46,30.20,30.11,14,8,20,0.00
2013-3-29,68.0,58.2,52.0,55.0,51.8,48.0,100,79,59,30.19,30.10,10,5,0,0.00
2013-3-30,68.0,58.5,54.0,57.0,53.1,-99.9,100,86,68,30.11,29.89,13,5,20,0.00
2013-3-31,64.0,56.1,46.0,54.0,46.9,37.0,100,75,36,29.99,29.87,16,-171,23,0.00